Home   Weather   Da Nang   Past weeks
Flag for Vietnam

Past Weather in Da Nang, Vietnam — Yesterday and Last 2 Weeks

Now
75 °F

Passing clouds.


Feels Like: 76 °F
Forecast: 84 / 68 °F
Wind: 3 mph from Southwest

Location: Da Nang Airport

Current Time: Jan 22, 2020 at 9:55:45 pm

Latest Report: Jan 22, 2020 at 9:00 pm


Visibility: 5 mi

Pressure: 30.04 "Hg

Humidity: 78%

Dew Point: 68 °F

Location of Da NangLocation

Past Weather in Da Nang — Graph

°F

Da Nang Temperature Yesterday

Maximum temperature yesterday: 82 °F (at 10:30 am)
Minimum temperature yesterday: 66 °F (at 5:00 am)
Average temperature yesterday: 75 °F

High & Low Weather Summary for the Past Weeks

 TemperatureHumidityPressure
High84 °F (Jan 10, 10:30 am)100% (Jan 8, 5:30 am)30.15 "Hg (Jan 8, 5:30 am)
Low66 °F (Jan 20, 2:30 am)48% (Jan 18, 2:30 pm)29.89 "Hg (Jan 10, 2:30 pm)
Average75 °F78%30.01 "Hg
* Reported Jan 7 8:00 pm — Jan 22 8:30 pm, Da Nang. Weather by CustomWeather, © 2020

Note: Actual official high and low records may vary slightly from our data, if they occured in-between our weather recording intervals... More about our weather records

Da Nang Weather History for the Previous 24 Hours

Scroll right to see more
 ConditionsComfort  
Time TempWeatherWind HumidityBarometerVisibility
8:30 pm
Wed, Jan 22
77 °FPassing clouds.3 mph74%30.04 "Hg5 mi
8:00 pm77 °FPassing clouds.5 mph74%30.04 "HgN/A
7:30 pm77 °FPassing clouds.5 mph74%30.04 "HgN/A
7:00 pm77 °FPassing clouds.5 mph74%30.01 "HgN/A
6:30 pm77 °FPassing clouds.3 mph74%30.01 "HgN/A
6:00 pm77 °FPassing clouds.5 mph74%30.01 "HgN/A
5:30 pm77 °FPassing clouds.8 mph69%29.98 "HgN/A
5:00 pm77 °FPassing clouds.6 mph74%29.98 "HgN/A
4:30 pm77 °FPassing clouds.8 mph69%29.98 "HgN/A
4:00 pm79 °FPassing clouds.8 mph65%29.98 "HgN/A
3:30 pm79 °FPassing clouds.8 mph65%29.98 "HgN/A
3:00 pm81 °FPassing clouds.9 mph66%29.98 "HgN/A
2:30 pm81 °FPassing clouds.8 mph62%29.98 "HgN/A
2:00 pm81 °FPassing clouds.8 mph62%29.98 "HgN/A
1:30 pm82 °FPassing clouds.7 mph62%30.01 "HgN/A
1:00 pm82 °FPassing clouds.8 mph62%30.01 "HgN/A
12:30 pm81 °FScattered clouds.7 mph66%30.04 "HgN/A
12:00 pm82 °FScattered clouds.3 mph58%30.04 "HgN/A
11:30 am82 °FPassing clouds.5 mph58%30.07 "HgN/A
11:00 am82 °FPassing clouds.5 mph58%30.07 "HgN/A
10:30 am81 °FPassing clouds.6 mph62%30.09 "HgN/A
10:00 am81 °FPassing clouds.5 mph62%30.09 "HgN/A
9:30 am79 °FPassing clouds.5 mph65%30.09 "Hg5 mi
9:00 am77 °FPassing clouds.5 mph69%30.09 "Hg5 mi
8:30 am75 °FPassing clouds.2 mph78%30.09 "Hg5 mi
8:00 am73 °FPassing clouds.3 mph83%30.07 "Hg4 mi
7:30 am73 °FPassing clouds.3 mph83%30.07 "Hg4 mi
7:00 am70 °FPassing clouds.2 mph94%30.07 "Hg4 mi
6:30 am68 °FFog.2 mph94%30.04 "Hg3 mi
6:00 am68 °FFog.2 mph100%30.04 "Hg3 mi
5:30 am68 °FFog.2 mph100%30.04 "Hg2 mi
5:00 am68 °FFog.2 mph100%30.04 "Hg2 mi
4:30 am70 °FFog.3 mph94%30.04 "Hg3 mi
3:30 am72 °FFog.1 mph88%30.04 "Hg3 mi
3:00 am70 °FFog.2 mph94%30.04 "Hg3 mi
2:30 am72 °FPassing clouds.2 mph88%30.04 "Hg4 mi
2:00 am72 °FPassing clouds.2 mph88%30.07 "Hg4 mi
1:30 am72 °FPassing clouds.1 mph88%30.07 "Hg4 mi
1:00 am72 °FPassing clouds.2 mph88%30.07 "Hg4 mi
12:30 am73 °FPassing clouds.3 mph83%30.07 "Hg4 mi
12:00 am73 °FPassing clouds.2 mph83%30.09 "Hg4 mi
11:30 pm
Tue, Jan 21
73 °FPassing clouds.2 mph83%30.09 "Hg4 mi
11:00 pm75 °FPassing clouds.3 mph78%30.09 "Hg5 mi
10:30 pm75 °FPassing clouds.2 mph78%30.09 "Hg5 mi
10:00 pm75 °FPassing clouds.2 mph78%30.12 "Hg5 mi
9:30 pm75 °FPassing clouds.3 mph78%30.12 "Hg5 mi
9:00 pm75 °FPassing clouds.5 mph74%30.12 "Hg5 mi
Weather by CustomWeather, © 2020

See weather overview

Advertising